Weather History for Elmendorf AFB, AK

Change the Weather History Date:

Friday, September 27, 2013

  Actual Average Record
Temperature  
Mean Temperature 46 °F -  
Max Temperature 53 °F 50 °F 60 °F (1963)
Min Temperature 41 °F 37 °F 25 °F (1983)
Degree Days  
Heating Degree Days 18    
Moisture  
Dew Point 42 °F    
Average Humidity 90    
Maximum Humidity 100    
Minimum Humidity 64    
Precipitation  
Precipitation 0.00 in - - ()
Sea Level Pressure  
Sea Level Pressure 29.08 in    
Wind  
Wind Speed 3 mph (NE)    
Max Wind Speed 13 mph    
Max Gust Speed -    
Visibility 8 miles    
Events      
Averages and records for this station are not official NWS values.
T = Trace of Precipitation, MM = Missing Value Source: NWS Daily Summary

Daily Weather History Graph

Daily Weather History Graph

Search for Another Location

Airport:

Trip Planner

Search our weather history database for the weather conditions in past years. The results will help you decide how hot, cold, wet, or windy it might be!

Date:

Astronomy

Sep. 27, 2013 Rise Set
Actual Time 7:56 AM AKDT 7:41 PM AKDT
Civil Twilight 7:13 AM AKDT 8:24 PM AKDT
Nautical Twilight 6:22 AM AKDT 9:15 PM AKDT
Astronomical Twilight 5:27 AM AKDT 10:10 PM AKDT
Moon No Moon Rise 4:55 PM AKDT (9/27)
Length of Visible Light 13h 11m
Length of Day
11h 45m
Last Quarter, 44% of the Moon is Illuminated
Sep 27
Last Quarter
Oct 4
New
Oct 11
First Quarter
Oct 18
Full
Oct 26
Last Quarter

Hourly Weather History & Observations

Time (AKDT) Temp. Windchill Dew Point Humidity Pressure Visibility Wind Dir Wind Speed Gust Speed Precip Events Conditions
12:23 AM 44.6 °F 40.7 °F 42.8 °F 93% 29.21 in 2.5 mi Variable 6.9 mph - N/A   Mostly Cloudy
12:28 AM 42.8 °F - 42.8 °F 100% 29.21 in 2.0 mi Calm Calm - N/A   Mostly Cloudy
12:33 AM 42.8 °F - 42.8 °F 100% 29.20 in 4.0 mi NNW 2.3 mph - N/A   Mostly Cloudy
12:43 AM 44.6 °F 40.2 °F 42.8 °F 93% 29.20 in 1.8 mi NNE 8.1 mph - N/A   Mostly Cloudy
12:48 AM 44.6 °F 40.2 °F 42.8 °F 93% 29.19 in 1.5 mi NNE 8.1 mph - N/A   Mostly Cloudy
12:53 AM 44.6 °F 40.2 °F 44.6 °F 100% 29.19 in 3.0 mi NNE 8.1 mph - N/A   Mostly Cloudy
12:58 AM 44.2 °F 38.0 °F 43.9 °F 99% 29.17 in 10.0 mi NNE 12.7 mph - N/A   Mostly Cloudy
1:58 AM 43.9 °F - 43.3 °F 98% 29.13 in 10.0 mi Calm Calm - N/A   Mostly Cloudy
2:58 AM 43.3 °F - 41.5 °F 93% 29.10 in 10.0 mi SE 2.3 mph - N/A   Scattered Clouds
3:58 AM 42.8 °F - 42.6 °F 99% 29.06 in 10.0 mi Calm Calm - N/A   Mostly Cloudy
4:58 AM 43.3 °F 39.9 °F 41.9 °F 95% 29.02 in 10.0 mi NE 5.8 mph - N/A   Mostly Cloudy
5:58 AM 42.3 °F - 41.9 °F 99% 29.00 in 10.0 mi Variable 1.2 mph - N/A   Mostly Cloudy
6:58 AM 41.7 °F - 41.5 °F 99% 28.99 in 10.0 mi Calm Calm - N/A   Mostly Cloudy
7:58 AM 41.7 °F - 41.4 °F 99% 28.98 in 10.0 mi Calm Calm - N/A   Mostly Cloudy
8:58 AM 42.1 °F - 41.9 °F 99% 28.97 in 10.0 mi ENE 1.2 mph - N/A   Mostly Cloudy
9:58 AM 43.0 °F - 42.8 °F 99% 28.97 in 10.0 mi Calm Calm - N/A   Scattered Clouds
10:58 AM 44.4 °F - 42.6 °F 93% 28.98 in 10.0 mi Calm Calm - N/A   Scattered Clouds
11:58 AM 45.5 °F - 43.0 °F 91% 29.00 in 10.0 mi Calm Calm - N/A   Scattered Clouds
12:58 PM 46.8 °F - 42.3 °F 84% 29.00 in 10.0 mi Calm Calm - N/A   Partly Cloudy
1:58 PM 50.4 °F - 41.4 °F 71% 29.01 in 10.0 mi East 5.8 mph - N/A   Clear
2:58 PM 50.5 °F - 42.1 °F 73% 29.03 in 10.0 mi Calm Calm - N/A   Partly Cloudy
3:58 PM 51.3 °F - 43.3 °F 74% 29.03 in 10.0 mi Calm Calm - N/A   Clear
4:58 PM 52.9 °F - 42.1 °F 67% 29.05 in 10.0 mi NE 1.2 mph - N/A   Clear
5:58 PM 52.3 °F - 40.5 °F 64% 29.05 in 10.0 mi NE 1.2 mph - N/A   Clear
6:58 PM 50.4 °F - 42.6 °F 75% 29.07 in 10.0 mi Calm Calm - N/A   Mostly Cloudy
7:58 PM 48.9 °F - 43.5 °F 82% 29.08 in 10.0 mi Calm Calm - N/A   Mostly Cloudy
8:58 PM 46.4 °F - 42.8 °F 87% 29.10 in 10.0 mi Calm Calm - N/A   Mostly Cloudy
9:58 PM 45.7 °F - 42.8 °F 90% 29.12 in 10.0 mi Calm Calm - N/A   Mostly Cloudy
10:58 PM 44.6 °F - 42.1 °F 91% 29.12 in 10.0 mi Calm Calm - N/A   Mostly Cloudy
11:58 PM 43.7 °F - 41.4 °F 91% 29.12 in 10.0 mi Calm Calm - N/A   Clear